Theta_e
317 315 317 317 316 316 315 316 318 319 320 325 327 323 319 318 322 325 323 321 325 326 323 323 321 317 314 311 309 308 308 307 307 307 307 307 308 310 312 312 313 315 317 318 321 322 323 323 324 325 325 326 326 326 326 326 326 325 324 324 324 322 321 320 319 320 322 321 321 320 316 313 315 318 318 310 305 306 309 312 315 314 313 313 314 314 314
319 316 317 317 316 316 316 313 312 314 318 322 323 321 319 319 321 322 321 322 324 323 322 321 317 313 310 308 308 307 306 306 305 304 304 303 304 305 306 307 310 312 314 317 319 321 322 323 323 324 324 325 326 326 326 326 325 324 322 324 324 322 322 321 320 321 322 322 321 318 317 319 321 321 317 309 306 309 312 314 315 315 315 314 314 314 313
319 317 317 317 315 316 318 316 312 313 318 322 323 322 321 321 321 320 321 323 323 321 320 318 313 310 308 308 307 306 305 305 304 303 302 302 302 303 304 306 308 311 313 316 318 319 320 321 321 322 323 324 324 324 325 325 325 324 323 324 323 323 324 323 322 322 322 321 320 319 320 322 321 321 319 314 312 314 315 315 316 316 316 316 315 314 314
320 316 316 318 316 316 319 318 312 312 317 320 321 319 318 319 322 322 322 324 323 320 318 314 310 308 308 307 306 305 304 304 304 303 302 302 302 303 304 306 308 310 312 313 314 314 315 317 319 320 321 323 323 323 324 324 324 324 324 323 323 323 324 323 322 322 321 321 321 321 322 322 322 322 321 319 318 318 318 318 318 317 318 318 316 315 314
320 315 316 320 319 317 319 316 310 310 312 315 318 318 316 317 320 321 322 322 321 318 315 312 310 308 307 307 306 305 304 303 303 303 302 302 303 304 305 306 306 308 309 309 310 310 311 313 315 316 318 321 321 321 323 323 323 323 322 322 322 322 323 322 322 322 321 321 322 322 322 323 322 322 321 321 321 321 321 321 320 319 320 319 317 316 315
320 316 316 319 319 318 317 313 309 309 310 313 316 316 314 315 317 318 318 319 318 316 313 310 309 307 307 306 305 304 304 303 303 303 303 304 304 304 305 305 305 305 306 306 307 307 307 308 309 310 312 314 315 317 319 321 321 321 320 320 320 320 320 320 320 321 321 321 322 322 322 322 322 321 321 321 321 321 322 322 321 320 320 319 318 316 316
318 315 316 319 319 316 314 312 309 308 308 310 313 313 311 312 316 316 316 316 314 312 310 308 307 306 306 305 304 304 304 304 304 305 305 306 306 306 306 306 305 305 305 305 306 305 305 306 306 306 307 308 309 311 313 315 316 317 317 317 317 316 315 315 316 317 318 319 320 319 319 320 321 321 321 321 321 321 321 322 321 321 321 320 319 318 317
316 317 318 318 316 313 312 312 310 308 309 309 312 316 313 310 313 314 312 312 310 308 307 306 306 305 305 304 304 304 304 303 304 306 306 306 307 307 307 307 307 307 307 307 307 306 306 306 306 306 306 306 306 307 308 309 310 311 313 313 312 312 311 312 312 313 313 315 316 316 315 315 317 319 320 320 321 321 321 322 321 321 321 321 320 320 319
315 317 316 315 315 313 312 311 309 308 308 308 310 314 313 309 310 310 309 308 308 307 307 306 304 305 305 303 302 302 303 302 303 304 304 305 306 306 307 307 308 308 308 308 308 308 308 308 307 307 307 307 307 306 306 307 307 307 308 309 308 308 309 310 310 311 310 311 312 313 313 312 314 316 318 318 319 320 320 320 320 320 320 320 320 320 320
314 316 316 315 317 315 312 311 309 307 307 306 307 311 312 310 309 308 307 308 307 307 306 305 305 307 306 303 300 300 301 301 301 302 302 302 303 303 304 305 306 306 307 307 307 308 309 309 309 309 309 309 309 309 309 309 309 308 308 307 306 306 306 307 307 308 309 310 310 311 312 312 311 312 314 315 317 318 318 319 319 319 319 318 318 318 318
314 316 317 316 316 313 310 308 306 305 305 305 307 312 315 311 308 308 308 307 306 306 306 305 306 309 307 303 300 299 299 300 300 301 300 299 300 300 301 301 303 303 305 305 306 306 307 306 306 306 306 308 309 309 310 310 311 310 308 307 307 307 305 303 303 303 304 306 307 309 310 310 308 307 309 310 312 314 315 316 316 316 317 317 316 316 316
313 314 313 312 312 310 307 305 305 305 305 306 310 317 316 310 307 308 307 306 306 305 304 304 306 308 306 302 300 299 299 299 300 300 300 300 299 299 299 299 300 300 301 302 303 304 304 303 301 301 302 304 306 306 306 307 307 307 306 305 306 306 305 304 304 303 302 302 302 303 304 304 303 304 304 304 305 307 309 310 311 312 313 313 313 313 313
312 312 312 311 310 308 305 304 304 304 306 309 314 316 312 307 307 307 306 306 307 305 304 305 305 304 303 301 299 299 299 299 300 300 300 300 300 300 300 299 299 299 299 299 299 299 299 299 299 299 299 300 302 301 301 302 303 303 302 302 302 303 303 303 304 304 304 303 302 302 301 301 300 301 301 301 302 302 303 304 304 305 305 306 306 306 306
310 309 310 311 310 307 303 303 304 305 309 314 313 308 305 306 307 307 306 305 306 305 305 305 303 301 301 300 300 299 299 299 299 299 300 300 300 300 300 300 299 299 298 298 298 297 297 298 299 299 298 299 299 299 299 300 300 300 300 300 300 300 300 300 300 301 301 301 301 301 301 300 300 300 300 300 300 299 300 300 300 301 301 301 301 301 301
309 309 310 312 311 306 302 303 306 307 309 310 306 303 303 305 305 305 306 306 306 306 305 303 302 301 300 300 299 299 299 299 299 299 299 300 300 300 300 300 300 299 298 298 298 297 297 299 299 299 299 299 299 299 299 300 300 300 300 300 299 299 299 299 299 299 299 299 299 299 299 299 299 299 299 299 298 298 298 298 299 299 299 299 299 299 299
309 310 309 307 306 303 301 303 306 305 304 304 304 303 303 303 302 303 304 303 304 305 304 302 301 301 300 300 300 300 300 300 299 299 299 300 300 299 299 299 299 299 299 299 299 298 298 299 299 299 299 299 299 299 299 299 300 300 300 299 299 299 299 299 298 298 298 298 298 298 298 298 298 298 298 298 298 298 298 298 298 298 298 298 298 298 298
305 307 306 304 303 302 301 302 302 302 302 303 303 304 303 302 302 302 302 301 302 303 303 302 301 301 300 300 300 300 300 300 300 300 300 300 300 299 299 299 299 299 300 300 300 299 298 299 299 299 299 300 300 299 299 299 300 299 299 299 299 299 298 298 297 297 297 297 297 297 297 297 297 297 297 298 298 298 298 298 298 298 298 298 298 298 298
303 304 303 302 302 302 302 302 302 302 302 302 303 304 303 302 302 301 301 301 301 301 301 301 300 300 300 300 300 300 300 300 300 300 300 300 299 299 299 298 298 299 300 300 300 299 299 299 300 299 299 299 299 299 299 299 299 299 299 298 298 297 297 297 297 297 297 297 297 298 297 298 298 298 298 298 298 298 298 298 298 298 298 298 298 298 298
305 305 303 301 302 302 301 302 302 302 302 302 302 303 302 301 302 302 301 301 301 301 301 301 300 300 300 300 300 300 300 300 300 300 300 299 299 299 298 297 297 298 299 300 299 299 299 299 299 299 299 299 299 299 299 299 299 298 298 297 297 296 296 296 297 297 297 297 297 297 298 298 298 298 298 298 298 298 298 298 298 298 298 298 298 299 299
305 304 302 300 301 301 301 303 303 303 303 302 302 302 302 302 302 301 301 301 301 301 301 300 300 301 300 300 301 300 300 301 300 300 300 299 299 299 298 298 298 297 298 299 299 299 299 299 299 299 299 299 299 299 299 298 298 297 297 296 296 296 296 296 296 296 297 297 297 297 297 297 297 297 297 297 298 298 298 298 298 298 298 298 298 298 298
303 303 301 300 302 302 301 303 303 303 304 304 303 303 303 303 302 302 302 302 302 302 302 301 301 301 300 300 300 300 300 300 300 300 300 300 299 299 298 298 298 297 298 299 299 299 299 299 299 299 299 299 299 299 298 298 297 296 296 296 295 296 296 296 296 296 296 296 296 296 296 296 296 296 296 296 297 297 297 297 297 297 297 297 297 297 297
305 304 302 302 304 303 302 302 303 303 303 303 303 303 303 303 303 303 302 303 303 302 302 302 301 301 300 300 300 300 300 300 300 300 300 299 299 299 298 298 297 297 298 298 298 299 299 299 299 299 298 298 298 298 297 297 297 296 296 296 295 296 296 295 296 296 296 296 295 295 295 295 296 296 296 296 296 296 296 296 296 296 296 296 296 296 296
306 304 302 301 303 303 301 301 302 302 302 301 301 301 301 301 301 301 301 301 301 301 301 300 300 300 299 300 300 300 299 299 299 299 299 298 298 298 297 297 296 297 297 298 298 298 298 298 299 298 298 298 298 297 297 297 297 296 296 296 295 296 296 295 295 295 295 295 295 295 295 295 295 295 296 296 296 296 296 296 297 297 297 296 296 296 296
304 303 302 301 302 301 301 301 301 301 301 301 300 300 300 300 300 299 299 299 299 299 300 300 300 300 299 299 299 299 299 298 298 298 298 298 297 297 297 296 296 296 297 297 297 298 298 298 298 298 298 298 298 297 297 297 296 297 297 296 296 296 296 295 295 295 295 295 295 295 295 295 295 295 295 296 296 296 296 296 296 297 297 297 296 295 295
303 303 302 302 301 301 301 301 301 301 301 300 300 300 300 299 299 299 299 299 299 299 299 299 300 299 299 298 298 297 298 298 298 298 298 297 297 296 296 296 296 296 296 296 296 297 297 297 297 297 298 297 297 297 297 297 297 297 297 297 297 296 296 295 295 295 295 295 295 295 294 294 295 295 295 295 296 296 296 296 296 296 296 296 295 295 295
303 302 301 301 301 301 301 301 301 301 300 300 300 299 298 298 298 298 298 298 299 299 299 299 299 299 298 298 298 297 297 297 297 297 297 296 296 296 296 296 296 296 296 296 295 295 295 295 296 297 298 298 297 297 297 297 297 297 297 297 297 296 296 295 295 295 295 295 294 294 294 294 295 295 295 295 295 295 296 296 296 296 296 295 295 295 295
302 302 302 300 300 300 301 301 301 301 300 299 299 299 298 298 298 297 297 297 297 298 299 299 299 298 298 298 297 297 297 297 296 296 296 295 295 295 295 295 295 295 295 295 294 293 294 294 295 297 298 298 297 297 297 297 297 297 297 297 297 296 296 295 295 295 295 294 294 294 294 294 295 295 295 295 295 294 294 295 296 297 296 296 296 296 296
301 302 301 300 299 299 300 300 300 300 299 299 299 298 298 298 298 297 297 297 297 298 298 298 297 297 297 297 297 296 296 296 296 296 295 295 295 295 295 295 295 295 295 295 294 293 293 295 296 297 297 297 297 297 297 297 297 297 297 297 297 296 296 295 295 295 295 294 293 293 293 294 295 295 295 295 294 294 294 295 296 296 297 298 297 296 296
301 301 301 300 299 299 299 299 299 299 298 298 298 298 298 298 297 297 297 297 297 297 297 297 296 296 296 296 296 296 296 296 295 295 295 295 295 295 295 295 295 294 295 295 293 292 293 295 296 297 297 298 298 297 297 297 297 297 297 297 297 296 296 296 295 295 295 294 293 293 293 293 294 294 295 294 294 295 295 295 296 296 297 298 298 297 297
300 300 300 299 299 299 299 299 298 298 298 298 298 298 298 297 297 297 297 297 297 297 297 296 296 296 296 296 296 296 296 295 295 295 295 295 295 295 295 295 294 294 294 294 292 292 294 295 296 297 298 298 298 298 298 297 297 297 297 297 296 296 296 295 295 295 294 294 293 293 293 293 293 294 294 294 295 296 296 296 297 297 297 297 297 298 297
299 299 299 298 298 298 298 298 298 298 298 298 298 297 298 297 297 297 297 297 297 297 296 296 296 296 296 296 295 295 295 295 295 295 295 295 295 294 294 293 292 292 292 291 291 292 294 296 296 297 298 298 298 298 298 297 297 297 297 297 296 296 295 294 295 295 294 294 293 293 294 294 294 294 294 295 296 296 296 296 297 297 297 297 297 297 297
298 298 298 298 298 298 298 298 298 297 297 298 297 297 297 298 297 297 297 297 297 297 296 296 296 296 295 295 295 295 295 295 295 295 295 294 294 292 291 291 290 290 290 290 290 293 295 296 297 297 297 298 298 298 297 297 297 297 297 296 296 296 295 294 295 295 294 294 294 294 294 294 294 294 295 295 296 296 296 296 296 296 297 296 296 296 296
298 298 298 298 298 298 298 298 297 297 297 297 297 297 297 297 297 297 297 297 297 297 296 296 296 295 295 295 295 295 295 295 295 295 294 293 292 291 290 290 290 290 291 292 292 293 295 296 297 297 297 297 298 298 297 297 297 297 297 296 296 296 294 294 295 295 294 294 294 294 294 295 295 295 295 296 296 295 295 295 295 296 296 295 295 295 296
299 299 299 299 299 299 298 298 297 297 297 297 297 297 297 297 297 297 297 297 297 297 296 296 296 295 295 295 295 295 295 295 294 294 293 293 293 292 292 293 293 293 294 294 294 294 295 296 297 297 297 298 297 297 297 297 297 297 297 296 296 295 294 294 295 295 294 294 294 293 294 295 295 296 296 295 295 295 295 294 295 295 294 294 294 295 295
299 299 299 299 299 299 299 298 297 297 297 297 297 296 297 297 297 297 297 297 297 297 296 296 296 295 295 295 295 295 295 294 293 293 294 295 295 294 294 294 294 294 294 294 294 295 296 296 297 297 298 298 297 297 297 297 297 297 297 296 296 295 294 294 295 295 294 294 294 293 293 294 295 296 296 295 295 294 294 294 294 294 294 293 294 294 294
299 299 299 299 299 298 298 298 297 297 297 297 297 297 297 297 297 297 297 297 297 296 296 296 296 295 295 295 295 295 294 293 293 294 295 295 295 295 294 294 293 294 294 295 295 296 296 297 297 297 298 297 297 297 297 297 297 297 296 296 295 294 293 294 295 295 294 294 294 293 293 294 295 296 295 295 294 294 294 294 294 294 294 293 294 294 294
298 298 298 298 298 298 298 297 297 297 297 297 297 297 296 296 297 297 297 297 297 296 296 296 296 295 295 295 295 295 293 292 293 295 296 295 295 295 295 294 294 295 295 296 296 296 297 297 297 297 297 297 296 296 296 297 297 297 296 296 295 294 293 294 295 295 295 294 294 294 294 294 295 295 295 295 294 294 293 293 294 294 294 294 294 294 294
298 298 297 297 297 297 297 297 297 297 297 297 297 297 296 297 297 297 297 297 297 297 296 296 295 295 295 295 295 294 292 292 294 296 296 295 295 296 295 295 296 296 296 296 296 297 297 297 297 297 296 295 295 295 296 297 296 296 296 295 295 294 293 293 295 295 295 294 294 294 294 294 294 295 295 294 294 294 293 293 293 294 294 294 294 294 294
298 297 297 297 297 297 297 297 297 297 297 297 297 297 297 297 296 296 296 296 296 296 296 296 295 295 295 295 294 293 291 291 293 296 296 295 295 295 295 295 296 296 296 296 297 297 297 297 295 294 293 292 293 295 296 296 296 296 296 295 295 294 293 293 294 295 295 294 294 294 294 294 294 295 295 294 294 294 293 292 293 294 294 294 294 294 295
298 298 297 297 297 297 297 297 297 297 297 297 297 297 297 297 296 296 296 296 296 296 296 296 295 295 295 295 294 293 291 291 292 294 294 295 294 294 293 294 296 297 297 297 297 297 296 294 292 291 291 291 292 294 295 295 295 296 296 295 294 294 293 293 294 295 295 294 294 293 293 293 294 295 295 294 294 294 293 292 292 293 293 293 294 294 294
298 298 298 297 297 298 298 298 298 298 298 297 297 297 297 297 297 297 297 296 296 296 295 295 295 295 295 295 294 293 292 291 291 292 292 293 293 293 292 293 295 296 296 296 296 295 294 293 292 292 292 292 292 292 293 294 295 296 296 295 294 294 293 293 293 294 295 294 294 293 293 293 293 294 295 294 294 293 292 292 292 292 293 293 294 294 294
298 298 298 298 298 298 298 298 298 298 298 298 297 297 297 297 297 297 297 297 297 296 296 296 296 295 295 294 293 293 292 292 291 291 291 291 292 292 292 292 294 294 295 295 294 293 293 293 292 292 292 292 292 293 294 295 295 296 296 295 294 294 294 293 292 292 293 294 294 293 293 292 293 294 294 293 293 292 292 292 292 293 293 294 294 294 294
298 298 298 298 298 298 298 298 297 297 297 298 298 298 297 297 297 297 297 297 297 297 297 296 296 295 295 295 294 293 293 292 291 291 291 291 291 291 291 292 293 293 293 294 294 293 293 292 291 290 290 291 292 293 295 296 295 295 295 295 295 294 294 293 292 291 292 293 294 294 293 293 293 293 293 292 292 292 292 293 293 294 294 294 294 294 294
298 298 298 298 298 298 298 298 298 297 298 298 298 298 298 297 297 297 297 297 297 297 297 297 296 296 295 295 294 294 293 293 291 291 291 291 291 292 291 291 292 292 292 292 292 292 292 291 290 289 289 290 291 293 294 295 295 295 295 295 294 294 294 293 292 291 291 291 293 294 294 293 293 293 293 292 291 292 292 293 293 293 294 294 294 294 293
298 298 298 298 298 298 298 298 298 298 298 298 297 298 298 297 297 297 297 297 297 297 297 297 297 296 296 295 295 295 294 293 292 291 291 291 291 291 291 292 292 292 292 292 292 292 292 292 290 288 288 289 290 292 294 295 295 295 295 295 294 294 293 293 293 292 291 291 292 293 294 294 294 293 293 292 291 292 292 292 292 292 293 293 293 294 293
298 298 297 298 298 298 298 298 298 298 298 297 297 298 297 297 297 297 297 297 297 297 297 297 297 297 296 296 295 295 295 294 293 292 291 291 291 291 291 291 291 291 291 292 292 292 293 292 290 288 288 289 289 291 293 294 294 294 295 294 294 294 294 293 293 293 292 291 290 291 292 292 293 294 294 293 292 292 292 291 292 292 292 292 293 293 293
298 298 298 297 297 298 298 298 297 298 298 297 297 297 297 297 297 297 297 297 297 297 297 297 297 297 296 296 295 295 295 295 294 293 292 291 291 291 291 291 291 290 290 290 291 291 292 292 290 288 288 289 289 289 291 293 294 294 294 294 294 293 293 293 293 293 292 291 290 290 290 290 291 292 293 293 293 293 292 291 291 291 292 292 292 293 293
298 298 298 297 297 298 298 298 297 297 297 297 297 297 297 297 297 297 297 297 297 297 297 297 297 297 296 296 296 296 296 295 295 294 293 291 291 291 291 291 291 290 289 288 289 289 290 289 288 287 288 288 288 288 290 293 294 294 293 293 292 292 292 292 292 292 292 291 290 290 289 289 289 290 291 292 293 293 293 292 292 291 292 292 292 292 292
297 298 298 297 297 297 298 298 297 297 297 297 297 297 297 297 297 297 296 296 297 297 297 297 297 296 296 296 296 296 296 295 295 294 294 292 291 291 291 291 291 290 288 287 287 287 287 287 287 287 288 288 288 288 290 291 292 292 291 291 290 290 290 291 291 291 291 290 290 289 289 289 289 289 290 291 291 292 292 292 292 292 292 291 291 291 291
297 297 297 297 297 298 298 298 297 297 297 297 297 297 297 297 297 297 296 296 297 297 297 297 297 296 296 296 296 296 296 295 295 295 294 293 292 291 291 291 290 289 288 288 288 288 288 287 287 287 287 287 287 288 289 289 290 289 289 289 289 289 289 289 289 289 289 289 289 288 289 289 288 288 289 289 290 291 292 292 292 292 292 291 290 290 290
297 297 297 298 297 297 297 297 297 297 297 297 297 297 297 297 297 297 297 297 296 296 296 296 296 296 296 296 296 296 296 296 295 295 294 294 293 291 290 289 289 288 288 288 288 288 288 288 287 287 288 287 288 288 288 288 288 288 288 288 288 288 288 288 288 288 288 288 288 288 288 288 288 288 288 288 289 290 291 291 291 292 291 291 290 290 290
297 296 297 297 297 297 297 297 297 297 296 297 297 297 297 297 297 297 297 296 296 296 296 296 296 296 296 296 296 296 296 296 295 295 295 294 293 292 291 290 290 289 288 288 287 288 288 288 288 288 287 287 288 288 288 288 287 287 287 287 287 287 287 287 288 288 288 288 288 288 288 288 288 288 288 288 288 289 289 290 290 291 291 291 290 290 290
Wind_Speed
5 7 7 7 5 5 6 7 6 6 6 7 8 1 3 1 3 4 5 8 7 6 8 7 6 9 10 10 14 18 22 25 26 24 25 27 28 28 27 25 23 23 21 19 17 15 14 13 12 12 12 12 13 16 19 19 19 20 18 16 18 20 20 19 18 18 18 16 14 14 14 13 12 10 8 8 9 11 11 11 8 7 6 6 5 5 4
6 9 8 7 5 4 6 9 9 8 4 6 8 3 2 3 2 3 7 8 4 3 6 6 9 16 20 19 20 21 23 26 27 27 27 27 29 30 29 28 26 25 23 21 20 19 18 17 14 11 10 10 12 15 16 16 17 17 17 17 18 20 21 19 17 18 16 14 14 16 16 15 13 12 10 9 10 12 12 12 10 9 8 7 6 6 6
4 8 8 6 5 5 7 9 12 12 8 5 6 4 4 5 5 5 9 8 4 3 6 10 16 22 22 20 19 19 22 25 28 29 28 28 30 32 32 30 28 26 24 23 22 22 22 20 19 19 17 15 14 14 14 15 16 15 16 17 17 18 19 17 17 18 17 16 16 16 16 15 14 14 13 12 11 11 12 12 11 11 10 8 8 8 7
2 6 7 6 5 5 7 10 12 12 9 5 4 4 3 3 6 8 8 5 3 3 8 13 16 19 19 17 17 19 20 25 30 30 29 30 33 35 35 33 31 28 26 25 25 25 24 23 23 24 22 19 17 16 16 17 16 15 15 16 17 18 17 17 19 20 19 19 17 16 16 16 16 15 15 15 14 12 12 12 13 12 10 11 11 11 10
1 4 6 5 4 3 3 5 7 7 5 4 4 4 5 3 4 7 4 2 3 6 10 12 11 11 14 15 17 19 19 23 28 30 30 33 34 35 35 35 34 32 29 28 28 27 27 26 26 26 25 23 21 20 18 18 18 17 17 17 17 18 17 17 18 18 19 19 18 17 18 18 18 17 17 16 16 16 14 13 14 13 10 11 13 15 14
1 3 5 4 2 0 1 2 3 4 4 4 4 4 6 6 2 4 3 4 6 7 10 12 11 11 14 16 18 19 19 22 26 29 31 33 33 33 33 33 33 32 31 31 31 31 31 30 30 30 30 28 27 24 22 21 21 20 20 19 19 18 18 17 16 15 15 15 15 16 16 16 16 17 16 16 16 16 15 14 14 14 12 13 15 17 17
1 1 3 2 1 1 1 2 4 5 4 3 4 5 7 7 3 6 7 6 8 10 12 16 19 20 19 19 19 18 16 18 23 27 29 29 29 30 30 30 29 29 29 30 30 30 30 30 30 31 31 31 30 28 25 24 24 24 23 23 22 21 20 20 19 17 16 14 15 15 14 13 14 15 15 15 14 14 14 15 15 16 15 16 17 18 19
0 1 2 2 2 1 2 3 5 5 4 4 4 5 7 8 5 4 7 5 7 15 19 22 25 27 26 23 20 18 17 17 21 26 26 24 24 24 24 25 25 25 25 26 25 24 24 25 26 27 27 27 27 28 27 25 24 24 24 24 22 21 21 20 20 19 17 16 17 17 16 15 15 14 13 13 13 14 15 15 16 16 17 17 18 18 20
1 2 2 0 0 1 2 2 4 4 3 3 2 2 4 6 6 2 7 7 8 15 21 23 27 30 27 20 15 16 20 20 22 25 25 23 22 21 20 19 19 20 20 21 21 20 18 18 19 20 20 20 21 22 22 20 19 19 20 21 19 17 16 15 14 14 13 13 13 12 12 11 11 12 12 11 12 13 14 15 15 15 16 17 17 18 19
1 3 2 1 1 1 1 1 3 5 5 4 2 0 2 4 5 5 9 8 8 14 20 23 25 25 19 9 6 13 19 19 21 24 23 23 22 21 20 18 17 16 15 15 16 16 15 13 13 13 13 13 14 14 13 12 12 11 12 13 12 11 11 9 7 5 5 5 5 4 5 5 5 7 9 10 11 13 13 14 14 15 15 15 16 17 17
2 3 2 1 1 0 2 4 7 9 6 6 4 1 2 2 4 8 11 9 7 10 16 16 13 11 9 3 5 13 17 18 22 24 23 23 23 22 20 19 18 17 15 14 13 12 11 10 10 9 8 8 9 9 8 9 7 4 4 5 5 5 6 6 4 3 2 1 3 4 5 6 6 5 5 6 9 11 13 14 14 15 16 16 16 17 17
2 2 2 1 0 0 3 6 11 13 6 5 3 1 1 1 4 8 12 14 12 8 9 7 3 3 7 9 13 18 20 20 23 23 22 22 22 21 20 19 19 19 17 15 14 12 11 11 11 10 8 6 7 7 7 8 7 3 3 3 2 2 4 5 5 6 6 4 4 5 6 8 9 9 10 11 11 12 14 15 16 17 18 19 19 20 21
3 3 2 1 2 2 4 9 14 15 6 1 2 2 3 1 6 10 12 18 19 11 7 10 9 10 17 20 22 23 21 20 22 21 21 21 20 19 19 17 17 17 16 15 15 14 13 12 12 10 7 6 9 9 7 6 6 6 6 5 3 3 5 7 8 9 11 10 10 9 10 10 11 11 13 14 15 16 17 18 19 20 21 22 23 24 24
3 2 2 1 1 1 8 14 15 10 3 2 2 1 4 3 9 14 12 15 16 10 8 13 18 22 25 25 24 22 19 19 20 19 19 19 18 17 16 15 14 13 13 13 14 14 14 13 12 9 6 7 10 9 8 9 10 10 9 8 7 7 7 8 9 10 11 12 13 13 14 15 15 15 16 16 17 18 18 19 20 21 22 23 24 25 25
2 2 3 2 1 5 15 16 9 5 3 2 2 5 10 10 12 15 14 13 12 10 14 21 25 25 24 22 21 20 18 18 18 18 17 17 17 15 14 13 11 11 11 12 12 13 12 11 11 9 7 8 9 8 9 11 10 8 8 9 10 10 11 11 11 12 12 13 14 14 15 16 17 17 18 18 18 19 19 20 21 21 22 23 24 25 26
2 2 2 1 3 8 15 10 3 3 4 1 3 7 13 14 14 16 17 14 14 18 25 28 26 23 22 20 18 17 17 16 17 17 16 15 14 13 12 11 10 9 10 10 11 10 10 10 9 8 7 8 8 9 10 10 8 7 9 10 12 13 15 15 15 15 15 15 15 16 16 17 17 18 18 19 19 20 20 21 22 23 24 24 26 27 28
3 3 2 2 1 5 11 13 12 11 11 10 12 15 18 17 17 19 20 19 19 24 29 28 25 23 21 18 16 15 15 15 15 15 13 12 11 10 10 10 9 8 9 9 9 8 7 7 6 7 7 7 7 8 10 9 8 9 11 13 14 16 16 17 17 17 17 17 17 17 18 18 18 18 19 19 19 20 20 21 22 23 24 25 26 27 29
5 7 4 3 4 9 14 16 17 18 19 17 17 20 22 20 20 21 23 23 23 24 26 26 25 23 21 18 16 15 14 13 12 11 10 9 9 8 8 8 8 7 7 8 7 6 6 5 5 6 7 7 7 8 9 9 10 12 14 15 16 17 16 16 16 16 16 17 17 17 17 18 18 18 18 19 19 19 20 21 22 23 24 25 27 28 29
3 3 2 2 5 9 13 18 20 21 23 22 21 23 24 22 22 23 23 24 23 22 22 23 23 21 19 18 16 14 12 11 9 8 7 7 7 7 9 9 7 6 5 6 6 5 5 5 6 6 7 8 9 9 10 11 13 14 15 16 16 16 16 17 17 17 17 17 17 17 17 17 17 17 17 18 19 19 20 22 23 24 25 26 28 29 31
3 1 1 3 7 8 12 17 20 21 22 23 23 24 24 23 24 23 23 22 22 21 20 20 20 18 16 14 13 11 10 9 7 6 6 5 6 7 8 8 7 6 5 5 5 4 4 5 6 7 8 9 10 11 12 13 13 14 14 14 15 16 17 18 19 19 19 19 18 18 18 18 18 18 18 19 20 20 21 23 25 26 27 28 29 30 32
4 2 2 6 9 8 9 15 17 17 18 19 19 20 21 21 22 21 19 17 15 15 16 15 14 14 12 10 10 10 9 8 6 4 3 3 5 6 6 7 7 6 5 4 4 4 4 4 5 6 8 9 10 11 12 12 12 12 12 13 15 17 18 20 20 20 20 19 18 17 17 18 18 18 19 20 21 21 21 22 24 26 28 30 31 31 33
1 2 6 7 5 3 4 10 14 14 15 16 17 17 16 16 16 16 14 13 10 9 10 10 10 11 12 11 10 10 8 6 5 2 1 1 3 5 6 6 7 6 5 4 4 4 4 5 5 6 7 8 9 10 9 10 11 11 12 14 16 17 18 20 20 20 20 19 18 18 19 19 19 19 19 18 19 20 21 21 22 24 26 28 29 30 32
3 8 13 10 8 8 9 11 13 14 14 15 16 16 14 14 13 11 11 11 10 8 8 8 8 11 13 11 9 8 7 5 3 1 1 2 4 5 5 6 6 5 5 5 6 6 6 7 8 8 7 6 6 7 7 9 10 11 13 15 16 16 18 20 21 21 21 20 20 20 20 21 21 21 20 18 16 17 18 19 19 20 21 23 24 25 27
4 9 14 12 12 13 13 12 13 12 12 13 13 12 10 10 9 8 6 7 7 7 7 7 6 7 8 7 5 4 4 3 2 2 2 3 4 6 7 7 5 5 5 6 7 9 9 10 11 10 6 4 4 5 6 8 10 12 14 16 16 17 18 20 21 21 21 21 22 22 23 23 22 20 20 19 17 15 16 16 16 16 16 17 18 19 21
8 11 12 11 14 15 13 12 12 11 10 10 10 8 7 6 6 5 4 4 5 6 6 6 7 6 6 5 4 3 3 3 3 3 3 5 6 8 8 7 6 6 6 7 8 10 11 13 12 7 4 3 3 4 6 8 9 12 15 16 16 17 18 19 20 20 21 21 22 23 24 24 21 18 18 20 20 19 17 15 13 11 11 12 15 18 20
11 13 13 14 15 14 12 11 10 9 7 7 7 7 5 4 4 3 2 2 3 4 4 5 8 8 6 4 4 4 4 4 4 4 5 7 8 8 8 8 7 8 8 8 10 11 12 13 11 5 4 4 4 3 6 8 9 12 14 15 16 16 16 18 19 21 22 22 22 23 23 21 18 16 16 18 21 22 20 16 12 9 8 9 12 16 18
13 13 13 14 13 11 10 10 10 9 7 6 6 6 4 3 2 2 2 2 3 4 4 5 6 7 6 5 5 5 5 4 4 5 6 7 6 7 7 7 8 8 8 10 12 13 12 11 9 7 6 5 5 4 6 8 9 12 14 14 16 15 15 17 20 21 20 20 21 21 20 16 14 14 14 15 17 19 18 16 15 15 13 12 13 15 17
14 12 11 11 11 9 9 8 8 8 7 5 5 5 3 1 0 1 2 2 3 5 6 6 5 5 6 6 6 6 6 5 5 5 5 5 5 7 8 8 9 10 10 12 14 13 10 9 9 10 8 6 6 6 7 8 10 13 14 14 15 15 14 16 20 20 17 16 17 18 18 15 12 11 11 13 15 15 14 14 18 20 20 18 16 15 14
12 10 9 9 9 7 7 7 7 7 5 5 5 4 2 2 3 2 1 2 4 5 6 7 7 7 7 7 6 5 4 4 5 5 5 6 7 9 10 11 11 12 13 13 14 13 9 9 11 12 10 7 6 6 7 8 10 12 13 13 14 14 14 17 20 19 15 13 15 17 18 16 12 10 11 12 14 15 16 17 19 20 20 19 18 15 14
11 10 8 8 8 8 8 8 7 6 6 7 6 5 4 4 5 5 5 5 6 7 8 8 9 9 7 5 4 4 4 5 6 6 7 8 9 11 12 13 14 15 15 14 14 12 8 12 15 13 10 8 7 7 7 9 11 12 12 12 13 14 14 17 19 17 14 13 15 16 16 16 13 11 11 13 14 15 16 17 18 18 18 18 18 17 18
12 11 9 9 10 10 9 8 7 7 8 10 10 8 6 6 6 7 7 7 7 8 9 9 9 7 4 4 4 5 6 6 7 8 10 11 12 14 15 16 17 18 17 15 14 10 9 14 16 13 9 9 8 8 8 9 10 11 11 12 13 13 15 17 18 16 13 13 15 15 15 14 12 10 11 13 14 14 14 15 16 16 16 15 15 15 17
13 11 9 9 9 8 7 5 5 6 7 10 10 10 8 9 9 10 9 8 8 9 9 8 6 4 4 4 5 6 7 9 10 12 13 14 15 16 17 18 19 19 18 16 13 10 11 15 15 11 9 10 9 9 8 9 9 10 11 12 13 14 15 17 17 15 13 13 14 14 14 12 10 9 10 12 12 13 14 15 14 13 13 14 14 15 16
13 10 9 8 8 7 5 3 3 3 4 5 6 6 8 10 12 12 11 9 8 9 8 6 4 4 4 5 6 7 9 11 13 15 17 18 19 19 18 18 18 17 17 17 14 12 13 14 13 11 10 10 10 9 8 8 9 10 11 12 13 13 16 17 15 14 13 13 12 12 11 11 10 8 9 10 12 14 15 15 13 11 11 13 14 14 15
8 7 6 6 7 7 6 5 3 2 2 3 4 6 7 8 11 12 10 9 8 8 7 5 5 5 6 7 8 10 12 14 16 18 19 19 18 17 15 15 15 16 16 16 14 13 13 13 13 12 11 10 9 8 8 8 9 10 11 12 13 14 15 16 14 13 13 13 12 9 8 9 9 8 8 11 13 15 16 17 16 12 10 10 12 13 14
7 6 6 6 6 7 7 7 6 5 5 6 7 8 7 7 9 10 9 9 8 8 6 6 6 6 7 9 10 12 13 15 17 18 16 14 13 12 12 13 13 13 12 11 12 13 13 14 14 13 11 9 8 8 8 8 9 11 12 12 12 13 15 14 13 12 13 14 13 10 7 7 8 8 8 11 14 16 16 18 17 14 10 11 13 14 14
7 6 6 7 7 7 7 7 6 6 6 6 7 7 5 7 9 10 9 9 9 8 7 7 7 7 8 9 11 12 14 15 16 14 11 9 8 8 9 9 8 7 6 7 10 12 12 14 14 12 10 9 8 8 9 9 10 11 12 11 11 12 14 13 11 11 12 14 13 11 9 7 7 8 9 11 14 15 16 16 15 12 11 13 14 14 15
5 5 4 5 7 7 6 5 5 4 4 5 6 5 4 5 8 9 10 9 9 9 9 8 8 8 8 9 10 12 13 14 13 11 8 6 6 7 8 6 5 4 5 6 9 10 12 12 11 9 8 8 8 9 9 9 10 11 10 9 9 12 13 12 11 11 12 13 14 13 10 7 5 6 8 10 13 15 17 15 11 10 13 14 14 15 16
4 3 2 3 5 5 5 5 4 3 3 4 5 5 5 4 5 7 9 9 9 9 10 8 8 8 9 10 10 11 12 12 10 8 6 5 6 7 6 5 5 5 6 8 10 11 11 11 9 8 7 7 8 9 9 10 10 10 8 7 8 11 12 12 11 11 12 13 14 13 8 5 3 4 7 9 12 16 17 13 8 10 13 14 14 15 16
3 4 4 3 4 4 5 5 5 5 5 6 6 6 5 5 5 6 7 8 8 9 10 9 9 9 10 10 10 10 11 10 8 6 5 5 5 5 5 6 6 7 8 10 10 10 10 9 8 7 7 7 8 9 10 11 10 7 5 5 8 10 11 11 11 12 12 13 12 8 4 1 2 4 6 9 12 15 15 9 8 11 13 13 13 14 15
3 4 5 5 5 6 6 7 8 9 10 10 10 8 6 7 7 7 7 8 9 10 11 11 10 10 10 9 8 8 9 9 7 6 6 5 5 4 5 6 7 8 10 10 10 9 8 7 6 5 6 8 10 11 12 12 9 5 4 5 7 8 10 11 11 11 13 13 10 5 4 3 2 4 7 8 11 13 11 6 7 10 12 12 13 14 14
3 4 5 6 7 9 10 10 11 11 12 12 12 10 8 8 8 8 9 9 9 10 11 11 10 9 9 8 7 7 7 8 8 7 7 6 5 4 4 5 6 8 9 10 10 10 8 6 5 5 6 8 10 12 12 11 8 5 4 5 5 7 9 10 9 9 11 12 10 5 4 3 2 4 6 7 10 11 8 4 8 10 11 11 12 12 13
4 5 7 8 8 10 11 11 12 12 11 11 10 10 10 9 9 9 10 10 10 10 10 10 9 8 7 7 6 7 7 7 8 8 8 7 6 5 4 5 7 8 8 9 11 11 10 8 7 7 7 9 10 11 11 10 8 5 5 6 5 6 8 10 9 8 9 10 9 7 3 2 2 3 5 7 9 8 4 6 9 11 10 9 10 11 11
8 9 9 9 8 9 10 10 11 11 11 10 9 9 9 10 11 11 12 12 12 11 10 10 9 7 7 7 7 7 8 7 7 8 7 6 6 6 6 7 8 9 8 8 9 10 10 10 10 9 9 10 11 11 12 11 10 8 7 7 6 6 8 9 10 10 9 8 8 7 4 2 2 3 5 7 6 3 6 8 10 9 8 8 9 10 10
10 11 11 11 10 9 9 9 9 10 10 10 9 10 11 12 13 14 13 13 12 12 10 9 9 8 7 8 8 8 8 8 7 7 6 6 6 7 6 7 8 9 9 9 9 9 8 9 10 9 9 11 12 12 13 13 11 10 9 9 7 7 8 9 10 11 10 7 6 6 5 4 3 4 5 4 3 5 7 8 8 7 6 7 8 8 9
11 11 11 11 11 11 11 11 11 11 11 11 11 12 13 13 12 11 11 11 12 12 11 10 10 9 8 9 9 7 7 7 8 8 7 7 7 7 6 6 7 8 9 9 9 9 9 9 10 9 9 10 12 13 14 13 11 10 10 10 8 8 8 8 9 10 10 8 6 5 5 4 3 3 1 2 4 6 7 7 7 6 5 5 6 6 7
10 10 10 11 12 11 11 11 11 11 12 12 11 11 11 11 10 10 10 11 11 12 12 12 11 10 9 9 9 8 7 8 9 10 9 7 7 7 6 7 8 9 9 10 10 9 10 11 10 9 9 11 12 13 14 13 11 10 10 9 9 9 8 9 9 9 9 9 7 5 4 4 3 2 1 3 5 7 7 7 6 6 5 5 5 6 7
9 9 10 11 11 11 10 10 10 11 12 13 11 8 7 7 8 10 11 11 11 11 10 10 10 10 9 8 8 8 8 9 10 10 9 8 8 8 7 8 8 8 8 9 9 9 10 12 11 9 10 11 12 13 14 14 13 11 11 10 10 10 10 10 10 9 9 8 7 5 4 3 2 2 1 1 4 6 6 7 6 5 4 4 5 6 7
7 8 9 10 11 11 11 11 11 12 12 12 11 8 7 7 9 10 10 10 10 8 7 7 8 9 8 8 8 9 10 10 10 9 8 8 8 8 8 8 8 7 6 6 7 8 10 11 11 11 11 11 12 12 13 14 14 14 13 13 12 12 12 12 10 10 9 9 7 5 4 3 2 2 1 1 2 4 6 7 6 5 4 4 4 4 5
7 8 9 9 10 11 11 11 10 10 10 10 11 11 10 9 9 9 8 7 7 7 7 6 7 8 9 9 10 10 10 11 11 10 9 9 9 9 8 7 7 7 7 6 6 7 8 9 10 11 12 12 12 12 13 14 14 14 13 14 14 13 12 12 11 10 10 9 7 6 4 3 2 2 1 1 1 3 5 6 6 5 4 2 1 1 1
10 10 9 9 9 10 9 8 8 7 7 8 10 12 12 10 9 9 8 6 5 6 7 7 8 9 10 10 10 10 10 10 11 11 10 10 10 8 7 7 6 6 6 6 6 6 7 8 9 10 10 10 11 12 12 12 12 12 12 13 13 12 12 11 10 9 8 8 7 6 5 4 3 2 2 2 3 3 3 4 4 4 3 3 2 3 4
9 8 8 9 9 8 7 6 6 6 7 8 9 8 7 7 6 7 7 6 6 6 7 8 9 10 10 10 10 10 9 9 10 10 10 9 8 7 5 4 5 5 5 5 5 5 5 7 7 8 8 9 9 10 10 10 10 10 10 10 9 9 10 9 9 8 7 7 6 6 5 5 5 4 4 3 4 4 4 4 4 4 4 5 5 6 7
9 8 8 8 7 5 3 3 4 4 6 7 7 5 5 5 5 5 4 4 3 3 4 5 5 6 6 7 8 8 8 8 8 8 8 8 7 6 4 4 4 5 5 5 5 4 5 5 6 7 7 7 7 7 7 8 8 8 7 7 7 7 7 7 7 7 7 6 6 5 4 4 4 5 5 5 5 5 5 5 6 6 7 7 7 7 7
Wind_Direction
342 4 355 354 34 78 46 24 22 26 39 64 74 73 273 180 153 215 206 163 158 157 140 136 133 117 108 101 102 103 99 97 97 93 88 87 88 90 92 91 92 93 95 98 102 109 119 128 142 160 176 182 181 183 188 191 191 190 190 185 181 186 191 195 198 198 199 203 200 193 183 165 157 165 177 184 185 183 183 179 180 196 203 201 200 201 205
356 3 358 2 31 66 46 26 11 1 21 85 91 82 19 64 98 184 145 130 111 105 124 123 115 114 111 107 104 101 98 97 96 90 83 79 80 83 85 87 91 92 92 95 98 103 109 114 119 131 150 166 173 176 178 179 179 175 172 172 174 183 190 189 188 192 195 193 187 178 167 158 163 170 169 173 180 181 183 188 198 210 212 208 209 215 221
341 352 360 7 31 62 53 24 6 360 3 35 62 51 37 53 60 87 109 109 78 79 111 108 108 112 110 105 101 97 97 98 95 89 86 84 83 84 85 88 92 94 96 98 99 102 106 111 113 114 121 136 150 156 158 164 170 171 169 168 168 174 183 185 184 185 185 183 180 173 167 169 175 174 168 168 177 186 195 204 211 217 221 222 220 221 226
298 340 347 337 354 37 48 23 0 353 355 360 9 12 15 81 111 105 107 118 126 122 111 105 107 108 102 97 98 100 101 102 101 98 95 92 89 88 89 90 91 93 95 97 97 98 102 108 113 113 116 125 131 133 139 149 158 165 169 168 164 164 167 170 174 179 183 185 185 181 180 182 180 178 175 174 182 197 209 217 222 223 227 229 226 225 227
271 328 333 332 350 5 10 7 348 329 320 319 332 7 7 17 112 126 141 150 137 134 121 109 102 96 95 97 102 105 106 106 107 106 102 98 94 92 92 91 90 90 92 94 96 98 100 104 109 112 115 119 118 120 130 142 150 154 154 152 151 153 155 159 167 176 184 187 186 184 186 186 185 186 185 184 192 202 208 216 223 225 228 226 224 226 229
244 307 334 355 40 153 253 343 343 309 299 326 10 41 13 352 43 128 132 115 116 121 121 117 108 94 93 100 105 110 116 118 115 111 106 102 99 96 94 92 90 90 91 93 95 96 97 99 102 106 109 110 112 116 123 132 138 140 139 136 134 132 132 137 144 155 169 179 180 180 185 190 193 194 193 195 201 204 203 206 213 219 222 221 221 225 228
185 313 17 61 159 244 295 346 346 327 314 351 55 62 29 6 32 103 103 110 120 113 107 109 106 98 94 94 98 107 119 123 119 114 110 107 105 102 99 96 94 93 93 94 95 95 96 100 101 100 101 104 107 110 114 119 124 127 130 130 128 125 124 125 127 131 138 147 152 153 158 173 186 190 192 196 202 205 204 205 211 216 220 222 223 225 227
169 28 35 122 173 310 332 349 357 353 348 1 27 40 23 3 354 89 100 98 109 111 111 111 109 106 100 90 86 98 110 112 112 110 108 108 108 107 105 104 104 103 102 101 99 95 94 99 102 101 99 100 101 102 105 109 112 117 124 125 124 125 126 125 127 130 133 140 145 146 147 152 160 168 177 183 190 198 205 210 214 218 222 226 229 231 233
128 92 38 42 162 6 10 4 355 346 327 341 17 17 10 2 350 58 107 108 114 116 115 116 115 111 100 81 72 92 105 106 104 103 102 104 105 104 106 108 107 108 110 111 111 108 103 99 98 99 99 100 99 98 98 98 100 106 114 115 114 119 121 122 129 135 137 139 142 149 154 147 142 153 168 180 187 193 202 208 213 219 225 230 235 238 241
96 105 88 32 23 40 34 317 310 311 284 240 186 57 358 12 23 80 110 115 126 126 124 128 126 113 96 71 73 102 108 108 104 100 98 99 99 97 99 102 102 103 106 108 112 118 118 111 103 103 106 107 106 101 92 89 90 92 95 95 93 95 99 102 111 122 136 146 145 154 170 164 152 161 174 186 195 200 207 212 217 223 228 234 239 242 244
60 99 105 75 121 126 333 305 313 324 292 223 194 33 355 17 63 112 119 113 119 127 127 135 140 118 98 118 147 125 121 116 108 104 102 99 97 95 94 94 96 97 98 101 104 110 114 107 96 94 102 115 125 125 117 118 124 107 59 57 54 54 55 54 51 47 55 194 231 237 221 230 252 246 225 220 218 217 219 223 226 230 232 235 239 242 245
49 86 94 60 153 321 340 318 320 328 312 200 176 8 339 66 116 141 135 126 128 124 103 90 52 71 115 145 149 134 124 115 108 107 106 103 101 99 96 93 93 94 96 98 101 103 103 93 81 79 87 105 115 114 114 126 141 130 58 47 23 336 336 337 326 322 328 317 285 271 260 262 271 269 263 262 255 246 242 240 241 241 241 241 242 244 246
35 63 91 26 287 277 327 322 322 330 333 180 167 253 289 18 129 146 140 134 137 131 83 66 65 90 113 127 132 128 122 116 111 108 106 103 101 98 94 91 91 92 92 89 85 84 85 86 85 82 84 89 87 83 81 85 80 63 49 38 20 343 323 320 311 304 305 307 305 300 293 288 286 282 278 276 272 267 262 258 256 255 254 253 253 253 253
24 71 93 5 263 282 337 329 327 344 10 213 230 330 355 45 133 147 145 141 144 138 104 106 115 118 119 122 124 124 123 119 111 107 105 102 98 95 92 87 83 83 85 80 75 74 78 85 89 87 79 80 82 80 76 69 60 46 33 20 11 0 345 331 322 313 309 308 308 306 302 298 295 292 290 288 285 282 279 274 271 269 267 267 266 264 264
41 56 45 46 199 316 338 335 328 8 44 230 247 44 52 73 118 140 145 150 161 157 132 125 126 125 122 122 122 121 119 113 106 103 100 94 90 89 85 79 70 66 71 73 71 73 81 89 90 85 78 80 82 81 76 69 57 36 21 10 357 349 342 335 327 321 316 313 310 307 306 304 300 298 296 294 292 291 290 288 285 283 281 279 278 276 275
53 72 38 94 228 313 346 6 55 50 31 156 152 94 80 81 99 119 125 131 145 145 134 127 127 125 121 121 120 116 113 109 104 101 95 87 83 80 75 69 59 54 61 67 68 75 85 88 84 74 66 71 74 72 69 60 42 19 6 354 345 341 339 336 332 327 323 320 315 311 308 306 303 301 299 298 297 295 294 293 291 290 289 287 286 284 283
72 94 115 182 223 5 30 59 79 80 85 106 121 113 101 93 100 111 113 114 124 131 130 129 129 128 126 126 124 120 114 107 102 99 95 84 75 69 64 60 54 52 57 57 57 66 76 75 69 55 46 48 53 54 49 35 12 359 350 342 340 340 338 335 333 330 328 325 321 318 314 310 308 304 301 299 298 296 295 294 293 292 292 290 289 288 287
70 62 67 106 84 65 68 75 81 89 96 103 111 110 104 101 108 115 116 119 124 127 129 130 130 130 132 134 132 126 117 106 98 93 85 73 62 56 50 46 45 47 50 46 41 47 56 55 48 37 26 19 23 28 22 6 352 348 344 342 342 342 341 340 337 335 333 329 325 323 320 317 314 310 307 303 300 299 297 296 295 294 293 292 291 290 289
83 63 26 34 68 76 82 85 87 91 94 97 103 105 104 106 111 114 117 121 123 124 127 129 129 133 138 137 134 129 119 111 104 93 83 75 64 50 41 39 36 25 21 24 25 30 44 47 36 22 10 6 8 7 357 348 346 345 344 345 346 346 347 346 342 339 336 331 327 324 321 319 316 312 307 303 300 299 299 298 296 295 294 293 293 292 292
76 138 201 64 79 90 95 96 95 94 95 98 100 104 108 110 110 111 115 120 121 123 125 126 129 135 139 138 136 133 126 121 115 100 84 70 52 39 33 30 23 8 1 9 11 8 17 26 18 6 359 355 354 352 347 344 346 347 347 349 352 353 353 350 346 341 337 333 328 324 319 317 314 311 308 303 300 299 299 298 297 295 294 294 293 293 293
60 55 101 94 84 77 88 101 105 104 104 106 107 110 115 117 116 118 122 125 127 130 132 136 140 141 145 149 147 141 135 130 122 102 76 43 18 10 5 0 356 347 341 348 353 346 347 353 351 348 350 347 341 339 340 342 347 351 353 357 359 356 354 352 347 343 340 338 334 328 323 319 315 312 310 306 302 300 298 296 295 293 292 292 291 291 291
67 218 179 148 108 97 122 117 115 114 113 112 113 114 117 119 123 127 129 130 137 143 146 156 161 153 150 151 146 139 134 128 120 112 77 350 339 338 340 345 344 329 307 300 311 317 316 316 317 323 331 330 325 328 336 346 355 359 0 1 360 356 353 351 347 345 343 341 337 333 328 322 317 314 313 312 310 307 303 299 296 293 292 292 292 292 293
214 199 181 159 130 145 152 132 122 121 118 115 114 112 110 111 115 118 118 122 130 137 142 151 156 149 145 143 139 138 138 137 143 174 271 312 318 321 328 339 344 330 299 282 285 294 293 293 300 306 308 304 304 317 338 353 360 4 3 360 356 353 350 348 346 345 343 340 336 333 328 324 320 317 315 315 316 315 313 309 303 298 295 294 294 294 294
132 170 171 151 131 143 149 136 130 129 124 123 121 114 109 109 109 112 116 119 128 139 143 145 152 154 151 148 152 159 160 168 203 236 264 292 306 315 320 324 324 314 299 291 290 289 287 291 296 295 285 278 293 318 338 350 359 4 1 356 352 349 347 345 344 343 341 338 335 331 328 326 325 325 324 323 324 326 328 327 321 314 306 300 297 294 292
132 157 160 141 134 143 146 141 139 135 132 134 129 120 120 121 119 127 140 138 150 166 168 162 164 172 172 170 183 212 213 211 228 244 261 285 301 308 308 302 290 287 287 289 291 289 287 291 293 280 246 254 289 319 334 342 353 358 355 350 347 343 340 340 340 339 337 336 332 330 329 330 331 332 334 334 334 334 335 336 336 331 318 305 297 292 289
133 142 134 123 126 137 145 149 148 142 141 141 132 124 118 107 105 119 112 107 144 173 188 183 175 176 188 203 215 226 227 226 233 251 278 295 301 300 299 294 289 288 286 289 299 301 292 284 276 246 224 255 266 294 324 332 340 346 346 344 342 338 335 334 335 336 337 336 331 328 331 333 334 335 337 339 340 338 337 339 344 342 331 318 309 303 300
133 141 135 123 121 129 143 152 154 153 153 154 151 147 129 94 93 99 68 78 132 158 177 192 186 184 196 213 216 212 217 229 245 267 291 301 301 301 305 303 302 302 298 299 309 313 299 279 254 218 218 247 254 275 309 319 327 337 341 340 337 334 331 331 334 335 335 333 329 328 332 336 337 337 338 340 339 337 336 341 345 342 337 334 330 324 321
140 149 148 136 129 129 134 142 156 166 170 173 179 181 173 145 143 15 45 102 149 164 175 188 200 207 211 214 216 218 224 237 256 276 293 302 307 309 307 303 303 304 300 303 311 312 294 263 226 201 208 238 254 269 293 306 318 330 336 336 334 331 328 330 334 333 330 329 330 332 336 340 342 342 341 340 338 335 334 337 339 338 338 341 340 337 334
147 145 140 134 133 135 138 145 160 174 183 192 203 216 242 267 276 285 267 190 184 191 198 201 207 217 222 221 224 231 245 266 282 291 295 298 303 305 302 298 298 297 296 300 309 308 279 236 206 193 201 231 254 264 279 296 313 327 334 333 330 327 325 328 332 331 326 328 333 333 333 336 339 341 343 344 343 340 336 335 337 340 344 348 349 345 342
158 157 157 158 159 165 170 170 180 201 219 225 235 249 263 269 267 255 240 225 215 217 219 210 204 208 218 233 253 276 288 291 292 292 290 291 294 296 296 294 292 291 292 295 302 301 264 218 200 195 205 230 248 259 274 294 312 326 331 329 327 328 328 330 332 331 325 325 332 333 333 335 338 339 342 343 342 340 338 339 342 345 345 347 350 350 350
168 170 173 170 167 169 173 177 188 209 225 235 242 244 242 249 253 244 235 231 226 223 218 206 199 208 234 267 283 286 284 285 290 288 285 287 290 292 293 290 286 286 287 286 289 285 243 211 202 203 215 232 246 259 276 298 315 324 327 327 328 331 333 333 334 331 324 324 333 339 339 339 340 340 339 338 340 343 345 347 350 350 346 345 352 359 358
169 170 169 171 173 173 175 183 189 200 220 237 245 247 252 260 260 251 246 244 236 224 215 206 206 234 277 281 280 284 288 292 295 292 290 292 293 290 287 284 280 278 278 276 273 260 228 211 206 209 221 234 245 260 280 301 316 321 324 328 331 333 333 334 335 333 324 321 329 335 336 338 343 345 342 343 347 353 353 350 352 356 355 354 1 8 4
177 178 182 194 201 191 178 173 176 183 205 231 247 261 268 267 262 258 258 254 237 224 219 220 236 272 291 291 291 295 298 300 299 296 295 294 291 286 282 278 273 270 270 270 262 242 221 212 208 210 221 233 245 263 284 303 314 318 324 331 332 330 332 334 336 334 327 320 319 325 335 346 352 349 346 351 356 356 353 351 351 355 359 0 4 6 1
208 220 232 241 236 228 223 217 214 222 255 281 294 297 287 268 257 254 254 249 238 233 236 248 267 283 295 301 301 300 301 301 300 298 296 292 288 284 279 275 271 271 272 266 248 223 211 209 209 212 222 233 248 271 291 304 310 316 325 330 328 328 333 337 336 333 329 325 322 322 331 345 351 346 346 354 357 355 353 352 351 352 357 2 4 3 0
245 253 255 245 234 239 242 236 236 260 284 295 303 308 298 265 247 244 247 250 250 251 257 267 277 287 298 303 303 302 302 302 302 301 298 293 288 286 284 279 275 273 267 246 216 202 202 206 208 212 224 238 255 279 296 303 306 312 320 325 325 330 336 339 338 333 328 326 327 324 319 331 341 340 342 353 356 353 350 349 349 354 9 17 16 15 15
234 241 245 233 226 236 246 241 242 258 271 286 305 311 289 252 242 243 249 255 255 255 259 267 276 289 300 303 300 298 301 306 308 307 301 295 295 300 302 295 282 264 239 208 193 192 199 204 208 218 232 245 262 283 294 297 299 307 315 320 327 336 341 341 341 337 327 322 322 316 304 309 331 336 337 346 351 350 350 349 351 7 31 37 32 31 33
234 241 245 235 229 233 236 236 243 261 277 299 311 306 276 253 251 251 252 255 256 253 256 267 280 291 297 296 292 296 307 316 317 311 304 303 308 314 316 308 282 246 214 192 185 188 196 203 212 226 241 256 273 286 288 288 293 302 311 320 331 339 342 344 347 343 331 323 320 314 297 285 306 330 334 337 343 350 354 356 5 34 52 50 42 38 39
242 219 209 224 228 226 223 226 240 265 284 296 298 286 268 264 266 259 256 258 258 253 254 265 280 288 290 288 289 301 317 324 322 315 311 308 308 312 314 299 262 226 196 185 189 195 202 211 222 236 252 270 283 282 278 282 292 299 307 322 335 339 341 346 352 352 341 329 324 321 307 277 281 319 332 335 343 351 356 3 30 60 59 50 42 38 35
249 221 217 225 224 224 230 238 251 272 281 280 277 275 267 260 260 263 265 263 255 247 251 263 275 282 286 286 291 307 325 331 325 319 315 307 305 309 305 281 248 216 199 198 203 208 214 224 237 249 261 271 274 270 270 279 288 293 299 319 333 338 342 348 355 358 352 340 333 334 347 337 301 325 337 340 346 352 355 9 60 72 59 46 40 34 29
317 261 241 233 231 244 261 271 279 289 291 281 269 264 259 252 252 262 272 271 260 251 253 263 273 278 281 283 292 313 332 338 331 319 312 308 309 308 296 278 252 222 211 213 219 222 226 235 246 257 264 264 262 262 267 273 277 276 285 313 329 337 343 349 356 0 359 353 348 359 43 57 11 342 341 342 347 352 357 27 81 73 55 45 38 30 26
329 291 271 266 265 270 278 282 286 292 293 283 271 264 261 258 259 265 271 274 269 262 261 266 272 273 273 277 291 311 328 335 331 319 310 308 309 301 283 272 258 239 229 232 237 236 236 246 264 270 264 261 261 262 262 262 258 257 275 297 316 332 342 349 356 358 357 357 359 13 54 72 22 333 335 345 350 352 1 63 84 64 49 44 38 31 29
277 270 273 277 282 286 288 285 283 285 286 282 277 272 267 258 253 258 268 274 275 272 271 271 270 263 256 262 281 299 310 319 321 314 304 301 301 289 262 248 250 250 246 242 242 240 243 262 281 279 261 256 260 259 254 249 248 253 266 275 291 321 338 350 360 359 353 356 5 14 37 76 48 340 332 342 347 351 24 80 72 54 45 45 43 38 34
278 271 269 270 277 289 292 288 282 278 275 275 278 275 268 259 253 254 262 269 272 275 277 274 265 252 245 254 272 286 294 301 310 310 301 291 287 282 266 249 246 250 248 241 238 242 251 267 279 274 260 256 258 253 244 241 245 252 255 258 272 303 325 344 2 5 357 356 6 11 12 27 33 344 329 336 351 40 96 90 72 59 55 55 51 45 41
292 286 279 272 271 277 282 281 277 274 277 282 280 272 268 268 266 260 257 257 262 271 279 278 268 255 249 254 268 285 296 300 303 305 298 285 277 278 275 261 253 254 253 247 243 247 260 278 284 275 261 257 257 250 242 240 243 247 248 252 266 292 312 331 352 2 2 360 3 7 5 358 335 313 320 343 35 111 118 102 83 72 65 60 53 46 43
296 293 286 277 273 273 273 272 270 273 283 290 283 270 268 271 267 254 245 246 253 264 273 276 272 265 258 257 264 283 302 302 292 290 293 295 292 288 281 272 269 269 268 262 256 255 267 286 293 280 260 254 252 247 241 240 241 243 245 251 265 285 303 318 335 349 359 3 1 358 1 2 343 318 339 77 121 141 138 117 95 79 67 61 56 51 50
295 291 284 281 281 281 279 273 268 271 282 289 286 277 274 272 258 241 236 242 252 261 267 269 269 270 268 263 266 279 297 301 293 287 286 293 302 303 295 286 282 277 271 266 263 262 268 282 288 277 256 250 249 243 238 238 241 243 245 253 266 280 293 306 317 330 345 359 4 360 357 360 359 354 44 118 148 158 150 126 105 92 82 74 65 60 57
295 288 284 283 283 281 279 276 272 274 282 287 286 279 272 261 245 237 239 246 255 260 261 260 261 264 266 264 265 275 288 300 306 304 295 287 291 299 302 300 296 285 267 258 257 260 267 275 278 269 255 251 249 242 236 236 240 245 251 260 270 278 284 293 302 312 324 340 355 3 3 8 10 4 8 130 163 163 148 130 120 111 94 77 66 61 57
300 294 293 293 291 287 282 277 272 273 279 281 278 270 263 252 241 236 240 249 253 251 249 252 254 254 254 256 263 270 276 284 300 315 318 306 296 295 297 299 301 298 286 270 263 263 268 270 267 260 255 255 252 244 238 239 244 251 258 266 272 275 276 280 288 298 307 319 335 350 358 6 12 9 13 81 136 136 127 123 123 118 100 78 61 53 47
306 300 298 302 306 303 293 278 269 271 277 276 271 266 262 252 237 227 228 236 239 236 240 250 253 251 252 257 262 266 269 273 283 300 318 322 316 306 297 295 302 310 311 304 290 278 272 268 260 254 252 252 250 245 243 245 251 257 263 266 268 269 269 271 278 286 294 303 318 331 338 343 352 354 342 323 180 148 136 132 132 131 125 115 83 25 360
307 299 295 300 310 312 302 288 279 276 276 278 275 269 259 245 229 219 218 223 231 239 246 255 259 261 264 267 267 266 265 267 272 284 301 317 324 318 302 293 301 311 313 309 302 288 273 265 259 254 251 249 247 246 246 250 256 262 265 264 262 262 263 266 271 278 285 294 306 315 317 322 330 331 318 294 273 241 201 175 169 170 176 196 231 251 258
312 300 291 294 302 305 302 298 292 280 278 289 292 274 241 217 207 210 218 228 239 244 245 251 258 264 269 270 270 270 268 265 265 272 284 300 316 324 319 310 313 317 314 312 310 295 275 266 262 256 249 243 240 241 247 255 262 265 263 258 255 256 260 264 269 274 278 284 295 301 302 304 310 311 305 293 280 269 260 251 241 234 234 240 249 256 259
314 302 290 288 293 298 303 309 303 288 283 291 295 278 236 218 212 209 216 229 235 230 233 245 258 266 272 274 275 277 279 275 270 268 271 277 286 298 313 329 336 334 327 319 312 300 290 286 277 261 244 234 233 239 249 259 263 262 258 253 250 250 252 256 261 267 272 276 282 286 285 284 288 296 297 292 281 272 268 267 264 260 259 258 260 263 265